Regional Weather Roundup
Issued by NWS

Home | Current Version | Previous Version | Graphics & Text | Print | Product List | Glossary On
Versions: 1 2 3 4 5 6 7 8 9 10 11 12 13 14 15 16 17 18 19 20 21 22 23 24 25 26 27 28 29 30 31 32 33 34 35 36 37 38 39 40 41 42 43 44 45 46 47 48 49 50
813
ASUS44 KJAN 281010
RWRMS

MISSISSIPPI HOURLY WEATHER ROUNDUP
NATIONAL WEATHER SERVICE JACKSON MS
400 AM CST WED JAN 28 2015

NOTE: "FAIR: INDICATES FEW OR NO CLOUDS BELOW 12,000 FEET WITH NO
SIGNIFICANT WEATHER AND/OR OBSTRUCTIONS TO VISIBILITY.

MSZ001>002-007>008-010>013-018>021-025>028-034>036-281100-
NORTHWEST MISSISSIPPI

CITY           SKY/WX    TMP DP  RH WIND       PRES   REMARKS
CLARKSDALE     FAIR      39  34  81 E6        30.24S WCI  35
CLEVELAND      FAIR      39  36  90 E7        30.21F WCI  34
GREENWOOD      CLEAR     41  32  70 CALM      30.23R
GREENVILLE     CLEAR     41  35  79 CALM      30.21R
GRENADA        FAIR      36  32  87 E6        30.24S WCI  31
OLIVE BRANCH   CLEAR     34  32  93 E6        30.23F WCI  29
OXFORD         FAIR      34  28  80 E7        30.24F WCI  28
TUNICA         SUNNY     36  32  87 CALM      30.25S
$$

MSZ003>006-009-014>017-022>024-029>033-037>039-281100-
NORTHEAST MISSISSIPPI

CITY           SKY/WX    TMP DP  RH WIND       PRES   REMARKS
COLUMBUS AFB   CLEAR     28  26  91 NE1       30.25R
CORINTH        FAIR      30  27  86 CALM      30.24S
GOLDN TRIANGLE CLEAR     34  28  80 CALM      30.23R
STARKVILLE     FAIR      32  30  93 CALM      30.24R
TUPELO         CLEAR     31  27  85 NE3       30.24S
$$

MSZ040-058-281100-
CENTRAL MISSISSIPPI

CITY           SKY/WX    TMP DP  RH WIND       PRES   REMARKS
JACKSON INTL   CLEAR     42  34  73 NE5       30.21S
JACKSON HAWKNS CLEAR     44  34  67 E7        30.21S
MERIDIAN KEY   CLEAR     35  31  85 N5        30.22S WCI  31
MERIDIAN NAS   CLEAR     38  31  76 NE5       30.23S WCI  34
RAYMOND        FAIR      34  30  86 MISG      30.21S
VICKSBURG      CLEAR     39  35  86 E6        30.21S WCI  35
$$

MSZ059>079-281100-
SOUTH MISSISSIPPI

CITY           SKY/WX    TMP DP  RH WIND       PRES   REMARKS
BROOKHAVEN       N/A     36  36 100 CALM      30.21S
HATTIESBURG    CLEAR     36  34  92 CALM      30.23R
MCCOMB         CLEAR     47  35  63 NE5       30.20S
NATCHEZ        CLEAR     46  36  66 CALM      30.19S
PINE BELT      CLEAR     39  32  75 N3        30.22S
$$

MSZ080>082-281100-
COASTAL MISSISSIPPI

CITY           SKY/WX    TMP DP  RH WIND       PRES   REMARKS
BILOXI         CLEAR     46  36  68 N1        30.20R
PASCAGOULA     CLEAR     38  36  92 CALM      30.20S
GULFPORT       CLEAR     42  36  79 CALM      30.20S
$$



USA.gov is the U.S. government's official web portal to all federal, state and local government web resources and services.